QPF
0.00 0.00 0.00 0.00 0.04 0.03 0.00 0.00 0.00 0.00 0.00 0.00 0.00 0.00 0.00 0.00 0.00 0.00 0.00 0.01 0.00 0.00 0.00 0.00 0.00 0.01 0.01 0.01 0.00 0.00 0.00 0.00 0.00 0.00 0.00 0.00 0.00 0.00 0.00 0.00 0.00 0.01 0.01
0.00 0.00 0.00 0.00 0.03 0.02 0.00 0.00 0.00 0.00 0.00 0.00 0.00 0.00 0.01 0.01 0.00 0.00 0.01 0.01 0.01 0.00 0.00 0.00 0.00 0.01 0.00 0.01 0.01 0.00 0.00 0.00 0.00 0.00 0.00 0.00 0.00 0.00 0.00 0.00 0.00 0.02 0.02
0.00 0.00 0.00 0.01 0.02 0.01 0.00 0.00 0.00 0.00 0.00 0.00 0.00 0.01 0.01 0.01 0.01 0.00 0.00 0.01 0.01 0.00 0.00 0.00 0.00 0.00 0.00 0.02 0.02 0.00 0.00 0.00 0.00 0.00 0.00 0.00 0.00 0.00 0.00 0.00 0.00 0.01 0.02
0.00 0.00 0.00 0.00 0.01 0.00 0.00 0.00 0.00 0.00 0.00 0.00 0.00 0.02 0.02 0.01 0.00 0.00 0.00 0.00 0.00 0.00 0.00 0.00 0.00 0.00 0.00 0.00 0.01 0.00 0.00 0.00 0.00 0.00 0.00 0.00 0.00 0.00 0.00 0.00 0.00 0.00 0.00
0.00 0.00 0.00 0.00 0.00 0.00 0.00 0.00 0.00 0.00 0.00 0.00 0.01 0.02 0.02 0.01 0.00 0.00 0.00 0.00 0.00 0.00 0.00 0.00 0.00 0.00 0.00 0.00 0.00 0.00 0.00 0.00 0.00 0.00 0.00 0.00 0.00 0.00 0.00 0.00 0.00 0.00 0.00
0.00 0.00 0.00 0.00 0.00 0.00 0.00 0.00 0.00 0.00 0.00 0.00 0.01 0.01 0.02 0.01 0.00 0.00 0.00 0.00 0.00 0.00 0.00 0.00 0.00 0.00 0.00 0.00 0.00 0.00 0.00 0.00 0.00 0.00 0.00 0.00 0.00 0.00 0.00 0.00 0.00 0.00 0.00
0.00 0.00 0.00 0.00 0.00 0.00 0.00 0.00 0.00 0.00 0.00 0.00 0.00 0.00 0.01 0.01 0.00 0.00 0.00 0.00 0.00 0.00 0.00 0.00 0.00 0.00 0.00 0.00 0.00 0.00 0.00 0.00 0.00 0.00 0.00 0.00 0.00 0.00 0.00 0.00 0.00 0.00 0.00
0.00 0.00 0.00 0.00 0.00 0.00 0.00 0.00 0.00 0.00 0.00 0.00 0.00 0.00 0.00 0.00 0.00 0.00 0.00 0.00 0.00 0.00 0.00 0.00 0.00 0.00 0.00 0.00 0.00 0.00 0.00 0.00 0.00 0.00 0.00 0.00 0.00 0.00 0.00 0.00 0.00 0.00 0.00
0.00 0.00 0.00 0.00 0.00 0.00 0.00 0.00 0.00 0.00 0.00 0.00 0.00 0.00 0.00 0.00 0.00 0.00 0.00 0.00 0.00 0.00 0.00 0.00 0.00 0.00 0.00 0.00 0.00 0.00 0.00 0.00 0.00 0.00 0.00 0.00 0.00 0.00 0.00 0.00 0.00 0.00 0.00
0.00 0.00 0.00 0.00 0.00 0.00 0.00 0.00 0.00 0.00 0.00 0.00 0.00 0.00 0.00 0.00 0.00 0.00 0.00 0.00 0.00 0.00 0.00 0.00 0.00 0.00 0.00 0.00 0.00 0.00 0.00 0.00 0.00 0.00 0.00 0.00 0.00 0.00 0.00 0.00 0.00 0.00 0.00
0.00 0.00 0.00 0.00 0.00 0.00 0.00 0.00 0.00 0.00 0.00 0.00 0.00 0.00 0.00 0.00 0.00 0.00 0.00 0.00 0.00 0.00 0.00 0.00 0.00 0.00 0.00 0.00 0.00 0.00 0.00 0.00 0.00 0.00 0.00 0.00 0.00 0.00 0.00 0.00 0.00 0.00 0.00
0.00 0.00 0.00 0.00 0.00 0.00 0.00 0.00 0.00 0.00 0.00 0.00 0.00 0.00 0.00 0.00 0.00 0.00 0.00 0.00 0.00 0.00 0.00 0.00 0.00 0.00 0.00 0.00 0.00 0.00 0.00 0.00 0.00 0.00 0.00 0.00 0.00 0.00 0.00 0.00 0.00 0.00 0.00
0.00 0.00 0.00 0.00 0.00 0.00 0.00 0.00 0.00 0.00 0.00 0.00 0.00 0.00 0.00 0.00 0.00 0.00 0.00 0.00 0.00 0.00 0.00 0.00 0.00 0.00 0.00 0.00 0.00 0.00 0.00 0.00 0.00 0.00 0.00 0.00 0.00 0.00 0.00 0.00 0.00 0.00 0.00
0.00 0.00 0.00 0.00 0.00 0.00 0.00 0.00 0.00 0.00 0.00 0.00 0.00 0.00 0.00 0.00 0.00 0.00 0.00 0.00 0.00 0.00 0.00 0.00 0.00 0.00 0.00 0.00 0.00 0.00 0.00 0.00 0.00 0.00 0.00 0.00 0.00 0.00 0.00 0.00 0.00 0.00 0.00
0.00 0.00 0.00 0.00 0.00 0.00 0.00 0.00 0.00 0.00 0.00 0.00 0.00 0.00 0.00 0.00 0.00 0.00 0.00 0.00 0.00 0.00 0.00 0.00 0.00 0.00 0.00 0.00 0.00 0.00 0.00 0.00 0.00 0.00 0.00 0.00 0.00 0.00 0.00 0.00 0.00 0.00 0.00
0.00 0.00 0.00 0.00 0.00 0.00 0.00 0.00 0.00 0.00 0.00 0.00 0.00 0.00 0.00 0.00 0.00 0.00 0.00 0.00 0.00 0.00 0.00 0.00 0.00 0.00 0.00 0.00 0.00 0.00 0.00 0.00 0.00 0.00 0.00 0.00 0.00 0.00 0.00 0.00 0.00 0.00 0.00
0.00 0.00 0.00 0.00 0.00 0.00 0.00 0.00 0.00 0.00 0.00 0.00 0.00 0.00 0.00 0.00 0.00 0.00 0.00 0.00 0.00 0.00 0.00 0.00 0.00 0.00 0.00 0.00 0.00 0.00 0.00 0.00 0.00 0.00 0.00 0.00 0.00 0.00 0.00 0.00 0.00 0.00 0.00
0.00 0.00 0.00 0.00 0.00 0.00 0.00 0.00 0.00 0.00 0.00 0.00 0.00 0.00 0.00 0.00 0.00 0.00 0.00 0.00 0.00 0.00 0.00 0.00 0.00 0.00 0.00 0.00 0.00 0.00 0.00 0.00 0.00 0.00 0.00 0.00 0.00 0.00 0.00 0.00 0.00 0.00 0.00
0.00 0.00 0.00 0.00 0.00 0.00 0.00 0.00 0.00 0.00 0.00 0.00 0.00 0.00 0.00 0.00 0.00 0.00 0.00 0.00 0.00 0.00 0.00 0.00 0.00 0.00 0.00 0.00 0.00 0.00 0.00 0.00 0.00 0.00 0.00 0.00 0.00 0.00 0.00 0.00 0.00 0.00 0.00
0.00 0.00 0.00 0.00 0.00 0.00 0.00 0.00 0.00 0.00 0.00 0.00 0.00 0.00 0.00 0.00 0.00 0.00 0.00 0.00 0.00 0.00 0.00 0.00 0.00 0.00 0.00 0.00 0.00 0.00 0.00 0.00 0.00 0.00 0.00 0.00 0.00 0.00 0.00 0.00 0.00 0.00 0.00
0.00 0.00 0.00 0.00 0.00 0.00 0.00 0.00 0.00 0.00 0.00 0.00 0.00 0.00 0.00 0.00 0.00 0.00 0.00 0.00 0.00 0.00 0.00 0.00 0.00 0.00 0.00 0.00 0.00 0.00 0.00 0.00 0.00 0.00 0.00 0.00 0.00 0.00 0.00 0.00 0.00 0.00 0.00
0.00 0.00 0.00 0.00 0.00 0.00 0.00 0.00 0.00 0.00 0.00 0.00 0.00 0.00 0.00 0.00 0.00 0.00 0.00 0.00 0.00 0.00 0.00 0.00 0.00 0.00 0.00 0.00 0.00 0.00 0.00 0.00 0.00 0.00 0.00 0.00 0.00 0.00 0.00 0.00 0.00 0.00 0.00
0.00 0.00 0.00 0.00 0.00 0.00 0.00 0.00 0.00 0.00 0.00 0.00 0.00 0.00 0.00 0.00 0.00 0.00 0.00 0.00 0.00 0.00 0.00 0.00 0.00 0.00 0.00 0.00 0.00 0.00 0.00 0.00 0.00 0.00 0.00 0.00 0.00 0.00 0.00 0.00 0.00 0.00 0.00
0.00 0.00 0.00 0.00 0.00 0.00 0.00 0.00 0.00 0.00 0.00 0.00 0.00 0.00 0.00 0.00 0.00 0.00 0.00 0.00 0.00 0.00 0.00 0.00 0.00 0.01 0.01 0.01 0.00 0.00 0.00 0.00 0.01 0.00 0.00 0.00 0.00 0.00 0.00 0.00 0.00 0.00 0.00
0.00 0.00 0.00 0.00 0.00 0.00 0.00 0.00 0.00 0.00 0.00 0.00 0.00 0.00 0.00 0.00 0.00 0.00 0.00 0.00 0.00 0.01 0.01 0.02 0.02 0.03 0.02 0.02 0.01 0.01 0.01 0.01 0.01 0.01 0.01 0.00 0.00 0.00 0.00 0.00 0.00 0.00 0.00
0.00 0.00 0.00 0.00 0.00 0.00 0.00 0.00 0.00 0.00 0.00 0.00 0.00 0.00 0.00 0.00 0.00 0.00 0.00 0.00 0.00 0.01 0.01 0.02 0.04 0.05 0.06 0.07 0.06 0.06 0.05 0.04 0.02 0.02 0.01 0.01 0.00 0.00 0.00 0.00 0.00 0.00 0.00
MSLP
1012.76 1012.51 1012.40 1012.48 1012.71 1013.06 1013.43 1013.75 1013.97 1014.05 1014.02 1013.92 1013.82 1013.76 1013.79 1013.90 1014.07 1014.25 1014.40 1014.49 1014.49 1014.43 1014.34 1014.25 1014.19 1014.18 1014.23 1014.31 1014.40 1014.47 1014.51 1014.50 1014.45 1014.38 1014.29 1014.19 1014.11 1014.03 1013.96 1013.90 1013.83 1013.75 1013.66
1012.45 1012.26 1012.22 1012.36 1012.65 1013.04 1013.44 1013.77 1013.98 1014.06 1014.02 1013.93 1013.85 1013.82 1013.88 1014.01 1014.20 1014.39 1014.55 1014.63 1014.64 1014.58 1014.49 1014.41 1014.35 1014.34 1014.38 1014.44 1014.50 1014.54 1014.55 1014.52 1014.46 1014.39 1014.31 1014.23 1014.17 1014.12 1014.06 1014.01 1013.95 1013.88 1013.80
1012.08 1011.95 1011.97 1012.18 1012.53 1012.96 1013.39 1013.74 1013.97 1014.06 1014.05 1013.98 1013.93 1013.93 1014.01 1014.16 1014.35 1014.54 1014.68 1014.75 1014.75 1014.69 1014.61 1014.53 1014.48 1014.47 1014.50 1014.54 1014.58 1014.59 1014.58 1014.54 1014.48 1014.41 1014.35 1014.31 1014.27 1014.24 1014.21 1014.17 1014.12 1014.06 1013.99
1011.70 1011.61 1011.69 1011.95 1012.36 1012.83 1013.30 1013.68 1013.93 1014.05 1014.07 1014.03 1014.01 1014.03 1014.13 1014.29 1014.47 1014.64 1014.76 1014.82 1014.81 1014.75 1014.67 1014.61 1014.57 1014.57 1014.59 1014.62 1014.64 1014.64 1014.62 1014.57 1014.52 1014.47 1014.43 1014.40 1014.39 1014.38 1014.37 1014.34 1014.30 1014.26 1014.21
1011.35 1011.30 1011.43 1011.74 1012.18 1012.69 1013.18 1013.58 1013.85 1014.00 1014.04 1014.04 1014.04 1014.09 1014.20 1014.36 1014.53 1014.68 1014.79 1014.82 1014.81 1014.75 1014.69 1014.64 1014.62 1014.63 1014.66 1014.69 1014.70 1014.69 1014.66 1014.62 1014.57 1014.54 1014.52 1014.51 1014.52 1014.52 1014.51 1014.49 1014.46 1014.43 1014.41
1011.11 1011.09 1011.25 1011.58 1012.05 1012.56 1013.06 1013.46 1013.73 1013.89 1013.95 1013.97 1014.01 1014.08 1014.20 1014.36 1014.52 1014.66 1014.75 1014.77 1014.75 1014.70 1014.65 1014.63 1014.63 1014.65 1014.69 1014.73 1014.74 1014.73 1014.71 1014.67 1014.63 1014.61 1014.60 1014.60 1014.60 1014.60 1014.59 1014.57 1014.55 1014.54 1014.54
1011.00 1011.01 1011.18 1011.52 1011.98 1012.48 1012.95 1013.32 1013.58 1013.73 1013.80 1013.84 1013.90 1013.99 1014.13 1014.29 1014.45 1014.58 1014.66 1014.68 1014.66 1014.62 1014.59 1014.58 1014.60 1014.64 1014.69 1014.73 1014.75 1014.75 1014.72 1014.69 1014.66 1014.64 1014.63 1014.63 1014.62 1014.61 1014.58 1014.56 1014.54 1014.53 1014.56
1011.04 1011.06 1011.24 1011.57 1012.00 1012.46 1012.87 1013.20 1013.42 1013.55 1013.62 1013.67 1013.74 1013.86 1014.01 1014.18 1014.34 1014.47 1014.54 1014.56 1014.54 1014.51 1014.49 1014.50 1014.53 1014.58 1014.64 1014.69 1014.71 1014.71 1014.69 1014.66 1014.63 1014.61 1014.60 1014.58 1014.55 1014.52 1014.47 1014.42 1014.40 1014.40 1014.44
1011.17 1011.21 1011.39 1011.70 1012.09 1012.48 1012.83 1013.10 1013.27 1013.37 1013.42 1013.48 1013.57 1013.70 1013.88 1014.06 1014.22 1014.34 1014.41 1014.43 1014.41 1014.38 1014.36 1014.38 1014.41 1014.47 1014.53 1014.58 1014.60 1014.60 1014.58 1014.56 1014.53 1014.50 1014.47 1014.44 1014.39 1014.32 1014.25 1014.18 1014.14 1014.14 1014.20
1011.32 1011.38 1011.56 1011.85 1012.19 1012.52 1012.80 1013.01 1013.13 1013.20 1013.24 1013.31 1013.41 1013.57 1013.75 1013.94 1014.11 1014.23 1014.28 1014.29 1014.26 1014.23 1014.21 1014.21 1014.25 1014.30 1014.36 1014.40 1014.42 1014.42 1014.40 1014.38 1014.34 1014.31 1014.26 1014.21 1014.13 1014.04 1013.94 1013.85 1013.79 1013.79 1013.84
1011.39 1011.47 1011.66 1011.93 1012.23 1012.52 1012.74 1012.90 1012.98 1013.03 1013.08 1013.16 1013.28 1013.45 1013.65 1013.85 1014.01 1014.11 1014.15 1014.14 1014.09 1014.05 1014.01 1014.01 1014.04 1014.08 1014.13 1014.17 1014.18 1014.18 1014.16 1014.12 1014.08 1014.04 1013.98 1013.90 1013.80 1013.68 1013.56 1013.45 1013.38 1013.36 1013.41
1011.32 1011.42 1011.62 1011.88 1012.16 1012.41 1012.60 1012.73 1012.80 1012.85 1012.91 1013.01 1013.16 1013.35 1013.55 1013.74 1013.89 1013.98 1013.99 1013.96 1013.90 1013.83 1013.79 1013.77 1013.79 1013.82 1013.86 1013.89 1013.90 1013.89 1013.86 1013.81 1013.76 1013.70 1013.62 1013.52 1013.40 1013.27 1013.13 1013.00 1012.91 1012.88 1012.91
1011.05 1011.18 1011.39 1011.65 1011.92 1012.15 1012.33 1012.45 1012.53 1012.61 1012.70 1012.83 1013.00 1013.21 1013.42 1013.60 1013.73 1013.80 1013.79 1013.73 1013.65 1013.58 1013.52 1013.50 1013.52 1013.55 1013.58 1013.60 1013.60 1013.57 1013.52 1013.46 1013.38 1013.29 1013.20 1013.08 1012.94 1012.79 1012.64 1012.50 1012.40 1012.35 1012.36
1010.62 1010.76 1010.98 1011.23 1011.49 1011.72 1011.90 1012.05 1012.16 1012.27 1012.41 1012.58 1012.78 1013.01 1013.22 1013.39 1013.50 1013.54 1013.52 1013.45 1013.36 1013.28 1013.23 1013.22 1013.24 1013.27 1013.30 1013.31 1013.29 1013.24 1013.16 1013.06 1012.95 1012.83 1012.70 1012.56 1012.41 1012.25 1012.09 1011.95 1011.84 1011.77 1011.75
1010.09 1010.22 1010.42 1010.66 1010.91 1011.13 1011.34 1011.51 1011.67 1011.84 1012.02 1012.23 1012.47 1012.70 1012.91 1013.06 1013.16 1013.18 1013.15 1013.08 1013.01 1012.95 1012.92 1012.92 1012.95 1012.99 1013.01 1013.01 1012.97 1012.88 1012.76 1012.62 1012.47 1012.30 1012.14 1011.97 1011.80 1011.63 1011.47 1011.32 1011.20 1011.12 1011.08
1009.57 1009.66 1009.81 1010.01 1010.23 1010.45 1010.67 1010.87 1011.08 1011.30 1011.53 1011.78 1012.03 1012.27 1012.47 1012.61 1012.69 1012.71 1012.69 1012.64 1012.59 1012.56 1012.57 1012.60 1012.65 1012.70 1012.71 1012.69 1012.61 1012.49 1012.32 1012.12 1011.91 1011.69 1011.48 1011.28 1011.10 1010.92 1010.76 1010.61 1010.49 1010.40 1010.34
1009.16 1009.17 1009.25 1009.38 1009.56 1009.75 1009.97 1010.21 1010.45 1010.71 1010.98 1011.25 1011.51 1011.74 1011.92 1012.05 1012.12 1012.14 1012.13 1012.11 1012.10 1012.12 1012.16 1012.23 1012.30 1012.35 1012.36 1012.31 1012.20 1012.02 1011.80 1011.54 1011.27 1011.00 1010.75 1010.52 1010.31 1010.12 1009.96 1009.82 1009.70 1009.60 1009.53
1008.96 1008.86 1008.83 1008.87 1008.98 1009.14 1009.34 1009.59 1009.86 1010.14 1010.43 1010.70 1010.95 1011.15 1011.30 1011.40 1011.46 1011.48 1011.49 1011.50 1011.54 1011.60 1011.69 1011.78 1011.87 1011.92 1011.91 1011.83 1011.68 1011.45 1011.18 1010.86 1010.54 1010.23 1009.93 1009.67 1009.45 1009.26 1009.10 1008.97 1008.85 1008.75 1008.67
1009.00 1008.77 1008.62 1008.55 1008.57 1008.68 1008.86 1009.09 1009.37 1009.66 1009.94 1010.19 1010.40 1010.56 1010.67 1010.73 1010.76 1010.78 1010.80 1010.84 1010.91 1011.00 1011.12 1011.23 1011.32 1011.35 1011.32 1011.21 1011.02 1010.76 1010.44 1010.09 1009.73 1009.38 1009.06 1008.78 1008.55 1008.35 1008.19 1008.06 1007.96 1007.86 1007.77
1009.26 1008.91 1008.63 1008.45 1008.39 1008.43 1008.58 1008.80 1009.06 1009.33 1009.58 1009.79 1009.94 1010.03 1010.08 1010.08 1010.08 1010.07 1010.09 1010.14 1010.22 1010.33 1010.45 1010.56 1010.63 1010.64 1010.58 1010.44 1010.22 1009.93 1009.59 1009.22 1008.84 1008.48 1008.15 1007.86 1007.61 1007.41 1007.26 1007.13 1007.03 1006.93 1006.84
1009.70 1009.24 1008.85 1008.57 1008.43 1008.43 1008.53 1008.73 1008.96 1009.20 1009.40 1009.54 1009.62 1009.63 1009.59 1009.53 1009.46 1009.41 1009.41 1009.44 1009.51 1009.61 1009.70 1009.78 1009.82 1009.79 1009.69 1009.52 1009.28 1008.98 1008.63 1008.27 1007.89 1007.54 1007.20 1006.91 1006.66 1006.46 1006.29 1006.16 1006.06 1005.96 1005.87
1010.23 1009.69 1009.23 1008.89 1008.69 1008.64 1008.72 1008.89 1009.09 1009.29 1009.43 1009.49 1009.48 1009.39 1009.26 1009.11 1008.97 1008.86 1008.81 1008.80 1008.83 1008.88 1008.92 1008.94 1008.92 1008.84 1008.70 1008.50 1008.24 1007.94 1007.61 1007.27 1006.91 1006.57 1006.25 1005.95 1005.69 1005.47 1005.29 1005.14 1005.03 1004.93 1004.84
1010.78 1010.21 1009.71 1009.34 1009.12 1009.06 1009.12 1009.27 1009.44 1009.58 1009.65 1009.63 1009.52 1009.34 1009.10 1008.86 1008.64 1008.46 1008.34 1008.27 1008.23 1008.20 1008.17 1008.11 1008.01 1007.86 1007.67 1007.44 1007.17 1006.88 1006.57 1006.25 1005.93 1005.60 1005.28 1004.97 1004.68 1004.43 1004.21 1004.04 1003.90 1003.80 1003.72
1011.30 1010.75 1010.26 1009.90 1009.68 1009.62 1009.68 1009.80 1009.94 1010.04 1010.04 1009.94 1009.74 1009.46 1009.14 1008.81 1008.51 1008.25 1008.05 1007.90 1007.77 1007.65 1007.52 1007.37 1007.17 1006.95 1006.70 1006.43 1006.15 1005.86 1005.57 1005.27 1004.95 1004.63 1004.29 1003.95 1003.62 1003.31 1003.05 1002.83 1002.67 1002.55 1002.46
1011.76 1011.27 1010.83 1010.50 1010.32 1010.27 1010.33 1010.44 1010.55 1010.59 1010.54 1010.37 1010.10 1009.74 1009.34 1008.94 1008.57 1008.24 1007.96 1007.72 1007.50 1007.28 1007.04 1006.78 1006.49 1006.18 1005.86 1005.54 1005.23 1004.94 1004.64 1004.34 1004.02 1003.67 1003.30 1002.90 1002.51 1002.13 1001.80 1001.52 1001.31 1001.17 1001.08
1012.17 1011.77 1011.40 1011.14 1010.99 1010.97 1011.02 1011.11 1011.18 1011.19 1011.08 1010.86 1010.53 1010.12 1009.67 1009.22 1008.79 1008.40 1008.06 1007.74 1007.42 1007.10 1006.75 1006.38 1005.99 1005.59 1005.19 1004.82 1004.47 1004.15 1003.83 1003.50 1003.15 1002.75 1002.32 1001.85 1001.37 1000.90 1000.48 1000.13 999.87 999.70 999.61
Thickness
5772 5773 5771 5768 5765 5763 5760 5758 5757 5756 5755 5754 5753 5753 5753 5753 5752 5751 5749 5748 5747 5745 5745 5744 5743 5740 5739 5736 5734 5733 5731 5729 5726 5723 5721 5719 5718 5716 5713 5711 5709 5705 5703
5777 5773 5771 5767 5765 5762 5760 5757 5756 5755 5753 5753 5753 5753 5753 5752 5751 5750 5749 5747 5746 5744 5743 5742 5740 5738 5736 5733 5731 5729 5726 5724 5721 5718 5717 5715 5715 5713 5710 5708 5705 5702 5700
5775 5772 5769 5766 5764 5760 5758 5755 5754 5752 5752 5752 5752 5752 5752 5751 5750 5749 5747 5746 5745 5743 5740 5738 5736 5736 5733 5730 5727 5724 5721 5719 5715 5713 5713 5711 5710 5709 5707 5704 5701 5699 5696
5775 5771 5768 5765 5762 5759 5756 5753 5751 5751 5751 5751 5751 5750 5750 5749 5748 5746 5745 5743 5742 5740 5737 5735 5733 5731 5728 5725 5722 5719 5716 5714 5711 5709 5709 5707 5706 5704 5701 5698 5696 5694 5690
5773 5770 5768 5764 5761 5758 5755 5752 5751 5750 5750 5749 5749 5748 5748 5747 5746 5744 5742 5740 5738 5736 5733 5731 5728 5726 5723 5719 5716 5714 5711 5709 5706 5704 5704 5702 5700 5698 5695 5692 5690 5687 5683
5771 5770 5767 5764 5760 5758 5755 5751 5750 5749 5748 5747 5747 5745 5745 5745 5743 5741 5739 5737 5734 5732 5729 5727 5724 5722 5719 5716 5713 5710 5708 5704 5701 5699 5698 5697 5694 5692 5689 5686 5684 5681 5678
5770 5768 5766 5763 5760 5757 5754 5751 5749 5748 5747 5746 5744 5743 5742 5742 5740 5738 5736 5734 5731 5729 5726 5723 5721 5718 5716 5713 5711 5709 5706 5702 5698 5696 5694 5693 5691 5689 5686 5682 5679 5677 5674
5769 5766 5764 5762 5759 5757 5753 5750 5749 5747 5745 5744 5743 5741 5739 5738 5737 5735 5733 5731 5728 5726 5724 5721 5719 5716 5714 5711 5709 5707 5704 5700 5697 5694 5692 5690 5689 5686 5683 5679 5676 5674 5671
5766 5763 5762 5761 5758 5756 5753 5750 5748 5746 5744 5743 5742 5739 5737 5735 5733 5732 5730 5728 5726 5724 5722 5720 5717 5716 5713 5710 5707 5704 5701 5698 5695 5692 5689 5688 5687 5684 5681 5677 5675 5672 5669
5762 5761 5760 5759 5757 5755 5752 5750 5748 5745 5743 5741 5739 5737 5734 5732 5731 5729 5727 5726 5724 5722 5720 5718 5716 5715 5713 5710 5707 5703 5700 5698 5695 5691 5688 5687 5685 5683 5679 5675 5672 5669 5665
5758 5757 5757 5756 5755 5754 5751 5749 5747 5744 5742 5740 5738 5736 5733 5731 5729 5727 5725 5724 5723 5721 5719 5717 5715 5714 5712 5709 5706 5702 5699 5696 5693 5689 5686 5684 5683 5681 5678 5673 5669 5666 5662
5755 5754 5754 5754 5753 5751 5750 5748 5745 5742 5740 5738 5736 5734 5732 5729 5727 5725 5723 5722 5721 5720 5718 5716 5714 5712 5709 5706 5703 5700 5696 5693 5690 5687 5684 5681 5679 5677 5675 5671 5668 5664 5661
5756 5755 5754 5752 5750 5749 5748 5747 5743 5740 5738 5736 5734 5733 5730 5727 5725 5722 5720 5719 5718 5717 5715 5713 5710 5708 5705 5701 5698 5695 5692 5689 5686 5683 5681 5678 5675 5674 5672 5669 5665 5662 5659
5755 5755 5756 5752 5750 5748 5747 5745 5742 5738 5736 5734 5732 5730 5727 5725 5722 5719 5717 5715 5714 5712 5709 5707 5704 5701 5698 5696 5693 5690 5688 5685 5683 5681 5679 5676 5674 5672 5670 5667 5663 5659 5656
5756 5756 5757 5754 5751 5749 5747 5744 5741 5737 5734 5732 5730 5727 5724 5721 5718 5715 5713 5711 5709 5707 5704 5701 5698 5695 5693 5691 5689 5686 5684 5683 5681 5679 5677 5675 5672 5669 5667 5664 5661 5658 5654
5760 5759 5759 5756 5754 5752 5748 5744 5741 5737 5733 5729 5726 5724 5720 5717 5715 5712 5709 5707 5705 5702 5699 5696 5693 5690 5688 5686 5684 5682 5680 5678 5677 5675 5673 5671 5669 5666 5664 5663 5660 5656 5652
5759 5759 5758 5757 5755 5752 5750 5746 5741 5736 5731 5726 5722 5720 5717 5714 5712 5708 5706 5704 5701 5696 5692 5689 5685 5682 5680 5678 5677 5676 5675 5674 5673 5672 5669 5666 5664 5662 5660 5658 5656 5652 5648
5758 5759 5760 5760 5756 5752 5749 5744 5739 5733 5728 5724 5720 5716 5713 5710 5706 5702 5699 5697 5693 5690 5688 5684 5681 5678 5677 5675 5673 5671 5670 5669 5668 5666 5663 5661 5658 5655 5653 5652 5650 5648 5645
5755 5758 5759 5758 5756 5751 5746 5741 5735 5729 5724 5721 5717 5714 5711 5707 5703 5699 5697 5695 5691 5688 5685 5683 5680 5675 5674 5672 5667 5666 5664 5662 5662 5661 5659 5656 5654 5652 5649 5647 5644 5642 5640
5748 5752 5753 5752 5749 5745 5739 5732 5727 5723 5720 5718 5715 5712 5709 5705 5702 5699 5697 5694 5689 5685 5683 5678 5675 5672 5670 5666 5662 5663 5662 5661 5660 5660 5657 5653 5651 5648 5645 5643 5639 5637 5635
5740 5742 5742 5743 5742 5738 5731 5724 5719 5716 5715 5713 5711 5708 5705 5702 5699 5696 5694 5691 5687 5683 5682 5679 5673 5669 5667 5661 5654 5656 5658 5657 5658 5657 5651 5647 5646 5643 5640 5639 5635 5633 5631
5725 5727 5729 5730 5732 5732 5728 5723 5717 5713 5709 5706 5705 5703 5700 5698 5695 5693 5690 5688 5685 5681 5679 5675 5669 5665 5664 5657 5650 5647 5650 5654 5657 5652 5649 5645 5643 5638 5636 5634 5631 5630 5627
5712 5712 5715 5715 5717 5719 5719 5716 5711 5707 5703 5699 5697 5695 5694 5692 5690 5688 5686 5683 5680 5676 5673 5669 5663 5657 5656 5654 5647 5640 5637 5644 5644 5645 5642 5641 5639 5635 5633 5629 5627 5625 5623
5701 5702 5703 5703 5704 5704 5705 5703 5698 5693 5689 5687 5686 5685 5684 5684 5682 5679 5677 5675 5672 5669 5665 5663 5659 5654 5649 5647 5644 5639 5635 5633 5626 5632 5637 5634 5631 5629 5627 5623 5621 5621 5620
5693 5693 5693 5693 5692 5691 5690 5688 5684 5680 5677 5676 5675 5673 5672 5671 5669 5666 5664 5663 5660 5658 5655 5652 5649 5646 5642 5639 5636 5632 5628 5624 5619 5614 5623 5631 5627 5626 5622 5618 5616 5616 5614
5684 5683 5682 5682 5679 5678 5676 5674 5670 5667 5664 5662 5660 5657 5655 5654 5653 5650 5649 5647 5645 5642 5640 5638 5635 5633 5630 5628 5626 5623 5619 5614 5614 5609 5610 5617 5620 5625 5620 5616 5614 5612 5608